Regional Weather Roundup
Issued by NWS Jackson, KY

Home | Current Version | Previous Version | Graphics & Text | Print | Product List | Glossary On
Versions: 1 2 3 4 5 6 7 8 9 10 11 12 13 14 15 16 17 18 19 20 21 22 23 24 25 26 27 28 29 30 31 32 33 34 35 36 37 38 39 40 41 42 43 44 45 46 47 48 49 50
000
ASUS43 KJKL 050910
RWRJKL

EAST KENTUCKY HOURLY WEATHER ROUNDUP
NATIONAL WEATHER SERVICE JACKSON KY
400 AM EST THU MAR 05 2015

NOTE: "FAIR" INDICATES FEW OR NO CLOUDS BELOW 12,000 FEET WITH
NO SIGNIFICANT WEATHER AND/OR OBSTRUCTIONS TO VISIBILITY.

* THESE REPORTS ARE NOT UNDER NWS QUALITY CONTROL AND MAY NOT
  REPORT WEATHER SUCH AS PRECIPITATION AND FOG.

KYZ079-080-083-085-087-088-110-112-115-119-120-051000
...EASTERN KENTUCKY...

CITY           SKY/WX    TMP DP  RH WIND       PRES   REMARKS
JACKSON        LGT SNOW  29  26  89 VRB5      30.06S FOG     WCI  24
LONDON         FRZ RAIN  31  26  82 N14       30.08R WCI  21
SOMERSET*      LGT SNOW  27  27 100 NE10G18   30.13R WCI  17
MONTICELLO*    LGT SNOW  27  27 100 N8G20     30.13F FOG     WCI  18
MIDDLESBORO*   LGT SNOW  34  32  92 N7        30.05R WCI  28
HAZARD APT*    RAIN      32  32 100 N5        30.07F WCI  27
BLACK MTN*       N/A     25  25 100 VRB7        N/A  WCI  17
PIKEVILLE APT* LGT SNOW  28  28 100 N9        30.04F WCI  20
BIG SANDY*     RAIN      29  28  97 N8        30.08F WCI  21
MOREHEAD APT*  LGT SNOW  23  19  86 N17       30.19S VSB 3/4 WCI   9
$$

KYZ035-036-041-042-044-050-067-078-099-051000
...CENTRAL KENTUCKY...

CITY           SKY/WX    TMP DP  RH WIND       PRES   REMARKS
MT STERLING*   LGT SNOW  23  21  93 NE6       30.19R VSB 3/4 WCI  16
FLEMING/MASON* LGT SNOW  18  16  93 N9        30.21S VSB 1   WCI   6
DANVILLE*      LGT SNOW  23  21  93 N13       30.19R WCI  11
RICHMOND*      CLOUDY    23  21  93 N13G18    30.17R VSB 1   WCI  11
LEXINGTON      CLOUDY    20  17  88 N16       30.18F FOG     WCI   6
FRANKFORT      LGT SNOW  20  16  84 N10       30.21F VSB 3/4 WCI   9
$$

KYZ091>093-OHZ055-061-077-WVZ005-015-034-035-042-051000
...SOUTHERN OHIO/WEST VIRGINIA...

CITY           SKY/WX    TMP DP  RH WIND       PRES   REMARKS
COVINGTON      LGT SNOW  18  10  73 N22G30    30.24S VSB 1   WCI   0
COLUMBUS       LGT SNOW  18   7  62 N12       30.22S WCI   5
DAYTON         CLOUDY    19   8  62 N14G22    30.24S WCI   6
WILMINGTON     LGT SNOW  16  10  77 N12       30.23R WCI   3
HUNTINGTON     LGT SNOW  24  23  96 N9        30.13F VSB 3/4 WCI  14
CHARLESTON     LGT SNOW  29  26  89 N14G23    30.11R FOG     WCI  18
PINEVILLE*     MIX PCPN  34  34 100 MISG      30.06S
BECKLEY        LGT SNOW  29  29 100 N7        29.98R FOG     WCI  22
BLUEFIELD      CLOUDY    33  29  85 N8        29.95R FOG     WCI  26
$$

VAZ002-007-008-TNZ017-027-036-066-071-051000
...SOUTHWEST VIRGINIA/EAST TENNESSEE...

CITY           SKY/WX    TMP DP  RH WIND       PRES   REMARKS
WISE*          MIX PCPN  32  32 100 N10       29.97F WCI  24
JONESVILLE*    LGT RAIN  36  36 100 N3        29.98F
ABINGDON*      DRIZZLE   38  37  94 N6        29.91F WCI  34
BRISTOL        LGT RAIN  38  37  97 N10G17    29.93S FOG     WCI  31
KNOXVILLE      HVY RAIN  37  35  92 N12       29.96F FOG     WCI  29
OAK RIDGE      RAIN      37  35  92 VRB3      30.00F FOG
CROSSVILLE     FRZ RAIN  32  29  88 N12       30.00R FOG     WCI  23
NASHVILLE      FLURRIES  25  22  88 N15       30.18R WCI  13
$$

...KEY TO REMARKS...
VSB - VISIBILITY IN MILES
WCI - WIND CHILL INDEX
HX  - HEAT INDEX

$$


USA.gov is the U.S. government's official web portal to all federal, state and local government web resources and services.